owner,sensor,date,latitude,longitude,vertical_datum,sea_water_temperature,qcFlag 
SCCF RECON,ioos:station:SCCF:11:1,2012-04-05T14:00:00Z,26.4679,-82.0631,1.74,26.52,2 
SCCF RECON,ioos:station:SCCF:11:1,2012-04-05T15:00:00Z,26.4679,-82.0631,1.74,26.66,2 
SCCF RECON,ioos:station:SCCF:11:1,2012-04-05T16:00:00Z,26.4679,-82.0631,1.74,26.75,2 
SCCF RECON,ioos:station:SCCF:11:1,2012-04-05T17:00:00Z,26.4679,-82.0631,1.74,27.09,2 
SCCF RECON,ioos:station:SCCF:11:1,2012-04-05T18:00:00Z,26.4679,-82.0631,1.74,27.54,2 
SCCF RECON,ioos:station:SCCF:11:1,2012-04-05T19:00:00Z,26.4679,-82.0631,1.74,27.77,2 
SCCF RECON,ioos:station:SCCF:11:1,2012-04-05T20:00:00Z,26.4679,-82.0631,1.74,28.0,2 
SCCF RECON,ioos:station:SCCF:11:1,2012-04-05T21:00:00Z,26.4679,-82.0631,1.74,28.11,2 
SCCF RECON,ioos:station:SCCF:11:1,2012-04-05T22:00:00Z,26.4679,-82.0631,1.74,28.06,2 
SCCF RECON,ioos:station:SCCF:11:1,2012-04-05T23:00:00Z,26.4679,-82.0631,1.74,27.88,2 
SCCF RECON,ioos:station:SCCF:11:1,2012-04-06T00:00:00Z,26.4679,-82.0631,1.74,27.68,2 
SCCF RECON,ioos:station:SCCF:11:1,2012-04-06T01:00:00Z,26.4679,-82.0631,1.74,27.54,2 
SCCF RECON,ioos:station:SCCF:11:1,2012-04-06T02:00:00Z,26.4679,-82.0631,1.74,27.51,2 
SCCF RECON,ioos:station:SCCF:11:1,2012-04-06T03:00:00Z,26.4679,-82.0631,1.74,27.32,2 
SCCF RECON,ioos:station:SCCF:11:1,2012-04-06T04:00:00Z,26.4679,-82.0631,1.74,27.22,2 
SCCF RECON,ioos:station:SCCF:11:1,2012-04-06T05:00:00Z,26.4679,-82.0631,1.74,27.07,2 
SCCF RECON,ioos:station:SCCF:11:1,2012-04-06T06:00:00Z,26.4679,-82.0631,1.74,26.9,2 
SCCF RECON,ioos:station:SCCF:11:1,2012-04-06T07:00:00Z,26.4679,-82.0631,1.74,26.75,2 
SCCF RECON,ioos:station:SCCF:11:1,2012-04-06T08:00:00Z,26.4679,-82.0631,1.74,26.52,2 
SCCF RECON,ioos:station:SCCF:11:1,2012-04-06T09:00:00Z,26.4679,-82.0631,1.74,26.42,2 
SCCF RECON,ioos:station:SCCF:11:1,2012-04-06T10:00:00Z,26.4679,-82.0631,1.74,26.33,2 
SCCF RECON,ioos:station:SCCF:11:1,2012-04-06T11:00:00Z,26.4679,-82.0631,1.74,26.14,2 
SCCF RECON,ioos:station:SCCF:11:1,2012-04-06T12:00:00Z,26.4679,-82.0631,1.74,26.04,2 
SCCF RECON,ioos:station:SCCF:11:1,2012-04-06T13:00:00Z,26.4679,-82.0631,1.74,26.3,2 
SCCF RECON,ioos:station:SCCF:11:1,2012-04-06T14:00:00Z,26.4679,-82.0631,1.74,26.4,2 
SCCF RECON,ioos:station:SCCF:11:1,2012-04-06T15:00:00Z,26.4679,-82.0631,1.74,26.52,2 
SCCF RECON,ioos:station:SCCF:11:1,2012-04-06T16:00:00Z,26.4679,-82.0631,1.74,26.69,2 
SCCF RECON,ioos:station:SCCF:11:1,2012-04-06T17:00:00Z,26.4679,-82.0631,1.74,26.87,2 
SCCF RECON,ioos:station:SCCF:11:1,2012-04-06T18:00:00Z,26.4679,-82.0631,1.74,27.12,2 
SCCF RECON,ioos:station:SCCF:11:1,2012-04-06T19:00:00Z,26.4679,-82.0631,1.74,27.35,2 
SCCF RECON,ioos:station:SCCF:11:1,2012-04-06T20:00:00Z,26.4679,-82.0631,1.74,27.48,2 
SCCF RECON,ioos:station:SCCF:11:1,2012-04-06T21:00:00Z,26.4679,-82.0631,1.74,27.51,2 
SCCF RECON,ioos:station:SCCF:11:1,2012-04-06T22:00:00Z,26.4679,-82.0631,1.74,27.37,2 
SCCF RECON,ioos:station:SCCF:11:1,2012-04-06T23:00:00Z,26.4679,-82.0631,1.74,27.09,2 
SCCF RECON,ioos:station:SCCF:11:1,2012-04-07T00:00:00Z,26.4679,-82.0631,1.74,26.7,2 
SCCF RECON,ioos:station:SCCF:11:1,2012-04-07T01:00:00Z,26.4679,-82.0631,1.74,26.42,2 
SCCF RECON,ioos:station:SCCF:11:1,2012-04-07T02:00:00Z,26.4679,-82.0631,1.74,26.3,2 
SCCF RECON,ioos:station:SCCF:11:1,2012-04-07T03:00:00Z,26.4679,-82.0631,1.74,26.2,2 
SCCF RECON,ioos:station:SCCF:11:1,2012-04-07T04:00:00Z,26.4679,-82.0631,1.74,26.0,2 
SCCF RECON,ioos:station:SCCF:11:1,2012-04-07T05:00:00Z,26.4679,-82.0631,1.74,25.81,2 
SCCF RECON,ioos:station:SCCF:11:1,2012-04-07T06:00:00Z,26.4679,-82.0631,1.74,25.85,2 
SCCF RECON,ioos:station:SCCF:11:1,2012-04-07T07:00:00Z,26.4679,-82.0631,1.74,25.73,2 
SCCF RECON,ioos:station:SCCF:11:1,2012-04-07T08:00:00Z,26.4679,-82.0631,1.74,25.17,2 
SCCF RECON,ioos:station:SCCF:11:1,2012-04-07T09:00:00Z,26.4679,-82.0631,1.74,24.69,2 
SCCF RECON,ioos:station:SCCF:11:1,2012-04-07T10:00:00Z,26.4679,-82.0631,1.74,24.49,2 
SCCF RECON,ioos:station:SCCF:11:1,2012-04-07T11:00:00Z,26.4679,-82.0631,1.74,24.43,2 
SCCF RECON,ioos:station:SCCF:11:1,2012-04-07T12:00:00Z,26.4679,-82.0631,1.74,24.2,2 
SCCF RECON,ioos:station:SCCF:11:1,2012-04-07T13:00:00Z,26.4679,-82.0631,1.74,24.13,2 
SCCF RECON,ioos:station:SCCF:11:1,2012-04-07T14:00:00Z,26.4679,-82.0631,1.74,24.47,2 
SCCF RECON,ioos:station:SCCF:11:1,2012-04-07T15:00:00Z,26.4679,-82.0631,1.74,24.98,2 
SCCF RECON,ioos:station:SCCF:11:1,2012-04-07T16:00:00Z,26.4679,-82.0631,1.74,25.4,2 
SCCF RECON,ioos:station:SCCF:11:1,2012-04-07T17:00:00Z,26.4679,-82.0631,1.74,25.61,2 
SCCF RECON,ioos:station:SCCF:11:1,2012-04-07T18:00:00Z,26.4679,-82.0631,1.74,25.69,2 
SCCF RECON,ioos:station:SCCF:11:1,2012-04-07T19:00:00Z,26.4679,-82.0631,1.74,25.69,2 
SCCF RECON,ioos:station:SCCF:11:1,2012-04-07T20:00:00Z,26.4679,-82.0631,1.74,25.67,2 
SCCF RECON,ioos:station:SCCF:11:1,2012-04-07T21:00:00Z,26.4679,-82.0631,1.74,25.63,2 
SCCF RECON,ioos:station:SCCF:11:1,2012-04-07T22:00:00Z,26.4679,-82.0631,1.74,25.36,2 
SCCF RECON,ioos:station:SCCF:11:1,2012-04-07T23:00:00Z,26.4679,-82.0631,1.74,25.22,2 
SCCF RECON,ioos:station:SCCF:11:1,2012-04-08T00:00:00Z,26.4679,-82.0631,1.74,24.98,2 
SCCF RECON,ioos:station:SCCF:11:1,2012-04-08T01:00:00Z,26.4679,-82.0631,1.74,24.68,2 
SCCF RECON,ioos:station:SCCF:11:1,2012-04-08T02:00:00Z,26.4679,-82.0631,1.74,24.33,2 
SCCF RECON,ioos:station:SCCF:11:1,2012-04-08T03:00:00Z,26.4679,-82.0631,1.74,24.18,2 
SCCF RECON,ioos:station:SCCF:11:1,2012-04-08T04:00:00Z,26.4679,-82.0631,1.74,23.95,2 
SCCF RECON,ioos:station:SCCF:11:1,2012-04-08T05:00:00Z,26.4679,-82.0631,1.74,24.07,2 
SCCF RECON,ioos:station:SCCF:11:1,2012-04-08T06:00:00Z,26.4679,-82.0631,1.74,24.36,2 
SCCF RECON,ioos:station:SCCF:11:1,2012-04-08T07:00:00Z,26.4679,-82.0631,1.74,24.31,2 
SCCF RECON,ioos:station:SCCF:11:1,2012-04-08T08:00:00Z,26.4679,-82.0631,1.74,24.13,2 
SCCF RECON,ioos:station:SCCF:11:1,2012-04-08T09:00:00Z,26.4679,-82.0631,1.74,23.65,2 
SCCF RECON,ioos:station:SCCF:11:1,2012-04-08T10:00:00Z,26.4679,-82.0631,1.74,23.47,2 
SCCF RECON,ioos:station:SCCF:11:1,2012-04-08T11:00:00Z,26.4679,-82.0631,1.74,23.4,2 
SCCF RECON,ioos:station:SCCF:11:1,2012-04-08T12:00:00Z,26.4679,-82.0631,1.74,23.13,2 
SCCF RECON,ioos:station:SCCF:11:1,2012-04-08T13:00:00Z,26.4679,-82.0631,1.74,23.42,2 
SCCF RECON,ioos:station:SCCF:11:1,2012-04-08T14:00:00Z,26.4679,-82.0631,1.74,24.12,2 
SCCF RECON,ioos:station:SCCF:11:1,2012-04-08T15:00:00Z,26.4679,-82.0631,1.74,24.29,2 
SCCF RECON,ioos:station:SCCF:11:1,2012-04-08T16:00:00Z,26.4679,-82.0631,1.74,24.61,2 
SCCF RECON,ioos:station:SCCF:11:1,2012-04-08T17:00:00Z,26.4679,-82.0631,1.74,24.35,2 
SCCF RECON,ioos:station:SCCF:11:1,2012-04-08T18:00:00Z,26.4679,-82.0631,1.74,25.38,2 
SCCF RECON,ioos:station:SCCF:11:1,2012-04-08T19:00:00Z,26.4679,-82.0631,1.74,25.14,2 
SCCF RECON,ioos:station:SCCF:11:1,2012-04-08T20:00:00Z,26.4679,-82.0631,1.74,25.46,2 
SCCF RECON,ioos:station:SCCF:11:1,2012-04-08T21:00:00Z,26.4679,-82.0631,1.74,25.43,2 
SCCF RECON,ioos:station:SCCF:11:1,2012-04-08T22:00:00Z,26.4679,-82.0631,1.74,25.31,2 
SCCF RECON,ioos:station:SCCF:11:1,2012-04-08T23:00:00Z,26.4679,-82.0631,1.74,25.06,2 
SCCF RECON,ioos:station:SCCF:11:1,2012-04-09T00:00:00Z,26.4679,-82.0631,1.74,24.85,2 
SCCF RECON,ioos:station:SCCF:11:1,2012-04-09T01:00:00Z,26.4679,-82.0631,1.74,24.67,2 
SCCF RECON,ioos:station:SCCF:11:1,2012-04-09T02:00:00Z,26.4679,-82.0631,1.74,24.48,2 
SCCF RECON,ioos:station:SCCF:11:1,2012-04-09T03:00:00Z,26.4679,-82.0631,1.74,24.42,2 
SCCF RECON,ioos:station:SCCF:11:1,2012-04-09T04:00:00Z,26.4679,-82.0631,1.74,24.06,2 
SCCF RECON,ioos:station:SCCF:11:1,2012-04-09T05:00:00Z,26.4679,-82.0631,1.74,24.16,2 
SCCF RECON,ioos:station:SCCF:11:1,2012-04-09T06:00:00Z,26.4679,-82.0631,1.74,24.19,2 
SCCF RECON,ioos:station:SCCF:11:1,2012-04-09T07:00:00Z,26.4679,-82.0631,1.74,24.1,2 
SCCF RECON,ioos:station:SCCF:11:1,2012-04-09T08:00:00Z,26.4679,-82.0631,1.74,24.03,2 
SCCF RECON,ioos:station:SCCF:11:1,2012-04-09T09:00:00Z,26.4679,-82.0631,1.74,24.11,2 
SCCF RECON,ioos:station:SCCF:11:1,2012-04-09T10:00:00Z,26.4679,-82.0631,1.74,23.98,2 
SCCF RECON,ioos:station:SCCF:11:1,2012-04-09T11:00:00Z,26.4679,-82.0631,1.74,23.78,2 
SCCF RECON,ioos:station:SCCF:11:1,2012-04-09T12:00:00Z,26.4679,-82.0631,1.74,23.66,2 
SCCF RECON,ioos:station:SCCF:11:1,2012-04-09T13:00:00Z,26.4679,-82.0631,1.74,23.77,2 
SCCF RECON,ioos:station:SCCF:11:1,2012-04-09T14:00:00Z,26.4679,-82.0631,1.74,24.06,2 
SCCF RECON,ioos:station:SCCF:11:1,2012-04-09T15:00:00Z,26.4679,-82.0631,1.74,24.27,2 
SCCF RECON,ioos:station:SCCF:11:1,2012-04-09T16:00:00Z,26.4679,-82.0631,1.74,24.62,2 
SCCF RECON,ioos:station:SCCF:11:1,2012-04-09T17:00:00Z,26.4679,-82.0631,1.74,24.87,2 
SCCF RECON,ioos:station:SCCF:11:1,2012-04-09T18:00:00Z,26.4679,-82.0631,1.74,24.93,2 
SCCF RECON,ioos:station:SCCF:11:1,2012-04-09T19:00:00Z,26.4679,-82.0631,1.74,25.47,2 
SCCF RECON,ioos:station:SCCF:11:1,2012-04-09T20:00:00Z,26.4679,-82.0631,1.74,25.56,2 
SCCF RECON,ioos:station:SCCF:11:1,2012-04-09T21:00:00Z,26.4679,-82.0631,1.74,25.68,2 
SCCF RECON,ioos:station:SCCF:11:1,2012-04-09T22:00:00Z,26.4679,-82.0631,1.74,25.6,2 
SCCF RECON,ioos:station:SCCF:11:1,2012-04-09T23:00:00Z,26.4679,-82.0631,1.74,25.45,2 
SCCF RECON,ioos:station:SCCF:11:1,2012-04-10T00:00:00Z,26.4679,-82.0631,1.74,25.34,2 
SCCF RECON,ioos:station:SCCF:11:1,2012-04-10T01:00:00Z,26.4679,-82.0631,1.74,25.18,2 
SCCF RECON,ioos:station:SCCF:11:1,2012-04-10T02:00:00Z,26.4679,-82.0631,1.74,24.96,2 
SCCF RECON,ioos:station:SCCF:11:1,2012-04-10T03:00:00Z,26.4679,-82.0631,1.74,24.87,2 
SCCF RECON,ioos:station:SCCF:11:1,2012-04-10T04:00:00Z,26.4679,-82.0631,1.74,24.85,2 
SCCF RECON,ioos:station:SCCF:11:1,2012-04-10T05:00:00Z,26.4679,-82.0631,1.74,24.7,2 
SCCF RECON,ioos:station:SCCF:11:1,2012-04-10T06:00:00Z,26.4679,-82.0631,1.74,24.57,2 
SCCF RECON,ioos:station:SCCF:11:1,2012-04-10T07:00:00Z,26.4679,-82.0631,1.74,24.52,2 
SCCF RECON,ioos:station:SCCF:11:1,2012-04-10T08:00:00Z,26.4679,-82.0631,1.74,24.48,2 
SCCF RECON,ioos:station:SCCF:11:1,2012-04-10T09:00:00Z,26.4679,-82.0631,1.74,24.59,2 
SCCF RECON,ioos:station:SCCF:11:1,2012-04-10T10:00:00Z,26.4679,-82.0631,1.74,24.43,2 
SCCF RECON,ioos:station:SCCF:11:1,2012-04-10T11:00:00Z,26.4679,-82.0631,1.74,24.3,2 
SCCF RECON,ioos:station:SCCF:11:1,2012-04-10T12:00:00Z,26.4679,-82.0631,1.74,24.26,2 
SCCF RECON,ioos:station:SCCF:11:1,2012-04-10T13:00:00Z,26.4679,-82.0631,1.74,24.27,2 
SCCF RECON,ioos:station:SCCF:11:1,2012-04-10T14:00:00Z,26.4679,-82.0631,1.74,24.36,2 
SCCF RECON,ioos:station:SCCF:11:1,2012-04-10T15:00:00Z,26.4679,-82.0631,1.74,24.6,2 
SCCF RECON,ioos:station:SCCF:11:1,2012-04-10T17:00:00Z,26.4679,-82.0631,1.74,25.01,2 
SCCF RECON,ioos:station:SCCF:11:1,2012-04-10T18:00:00Z,26.4679,-82.0631,1.74,25.26,2 
SCCF RECON,ioos:station:SCCF:11:1,2012-04-10T19:00:00Z,26.4679,-82.0631,1.74,25.41,2 
SCCF RECON,ioos:station:SCCF:11:1,2012-04-10T20:00:00Z,26.4679,-82.0631,1.74,25.43,2 
SCCF RECON,ioos:station:SCCF:11:1,2012-04-10T21:00:00Z,26.4679,-82.0631,1.74,25.93,2 
SCCF RECON,ioos:station:SCCF:11:1,2012-04-10T22:00:00Z,26.4679,-82.0631,1.74,26.14,2 
SCCF RECON,ioos:station:SCCF:11:1,2012-04-10T23:00:00Z,26.4679,-82.0631,1.74,26.3,2 
SCCF RECON,ioos:station:SCCF:11:1,2012-04-11T00:00:00Z,26.4679,-82.0631,1.74,26.26,2 
SCCF RECON,ioos:station:SCCF:11:1,2012-04-11T01:00:00Z,26.4679,-82.0631,1.74,26.1,2 
SCCF RECON,ioos:station:SCCF:11:1,2012-04-11T02:00:00Z,26.4679,-82.0631,1.74,25.91,2 
SCCF RECON,ioos:station:SCCF:11:1,2012-04-11T03:00:00Z,26.4679,-82.0631,1.74,25.78,2 
SCCF RECON,ioos:station:SCCF:11:1,2012-04-11T04:00:00Z,26.4679,-82.0631,1.74,25.5,2 
SCCF RECON,ioos:station:SCCF:11:1,2012-04-11T05:00:00Z,26.4679,-82.0631,1.74,25.49,2 
SCCF RECON,ioos:station:SCCF:11:1,2012-04-11T06:00:00Z,26.4679,-82.0631,1.74,25.39,2 
SCCF RECON,ioos:station:SCCF:11:1,2012-04-11T07:00:00Z,26.4679,-82.0631,1.74,25.29,2 
SCCF RECON,ioos:station:SCCF:11:1,2012-04-11T08:00:00Z,26.4679,-82.0631,1.74,25.21,2 
SCCF RECON,ioos:station:SCCF:11:1,2012-04-11T09:00:00Z,26.4679,-82.0631,1.74,25.1,2 
SCCF RECON,ioos:station:SCCF:11:1,2012-04-11T10:00:00Z,26.4679,-82.0631,1.74,25.02,2 
SCCF RECON,ioos:station:SCCF:11:1,2012-04-11T11:00:00Z,26.4679,-82.0631,1.74,25.19,2 
SCCF RECON,ioos:station:SCCF:11:1,2012-04-11T12:00:00Z,26.4679,-82.0631,1.74,25.1,2 
SCCF RECON,ioos:station:SCCF:11:1,2012-04-11T13:00:00Z,26.4679,-82.0631,1.74,25.09,2 
SCCF RECON,ioos:station:SCCF:11:1,2012-04-11T14:00:00Z,26.4679,-82.0631,1.74,25.07,2 
SCCF RECON,ioos:station:SCCF:11:1,2012-04-11T15:00:00Z,26.4679,-82.0631,1.74,25.31,2 
SCCF RECON,ioos:station:SCCF:11:1,2012-04-11T16:00:00Z,26.4679,-82.0631,1.74,26.03,2 
SCCF RECON,ioos:station:SCCF:11:1,2012-04-11T17:00:00Z,26.4679,-82.0631,1.74,26.04,2 
SCCF RECON,ioos:station:SCCF:11:1,2012-04-11T18:00:00Z,26.4679,-82.0631,1.74,26.26,2 
SCCF RECON,ioos:station:SCCF:11:1,2012-04-11T19:00:00Z,26.4679,-82.0631,1.74,26.52,2 
SCCF RECON,ioos:station:SCCF:11:1,2012-04-11T20:00:00Z,26.4679,-82.0631,1.74,26.65,2 
SCCF RECON,ioos:station:SCCF:11:1,2012-04-11T21:00:00Z,26.4679,-82.0631,1.74,26.73,2 
SCCF RECON,ioos:station:SCCF:11:1,2012-04-11T22:00:00Z,26.4679,-82.0631,1.74,26.78,2 
SCCF RECON,ioos:station:SCCF:11:1,2012-04-11T23:00:00Z,26.4679,-82.0631,1.74,26.79,2 
SCCF RECON,ioos:station:SCCF:11:1,2012-04-12T00:00:00Z,26.4679,-82.0631,1.74,26.79,2 
SCCF RECON,ioos:station:SCCF:11:1,2012-04-12T01:00:00Z,26.4679,-82.0631,1.74,26.66,2 
SCCF RECON,ioos:station:SCCF:11:1,2012-04-12T02:00:00Z,26.4679,-82.0631,1.74,26.37,2 
SCCF RECON,ioos:station:SCCF:11:1,2012-04-12T03:00:00Z,26.4679,-82.0631,1.74,26.11,2 
SCCF RECON,ioos:station:SCCF:11:1,2012-04-12T04:00:00Z,26.4679,-82.0631,1.74,25.87,2 
SCCF RECON,ioos:station:SCCF:11:1,2012-04-12T05:00:00Z,26.4679,-82.0631,1.74,25.6,2 
SCCF RECON,ioos:station:SCCF:11:1,2012-04-12T06:00:00Z,26.4679,-82.0631,1.74,25.4,2 
SCCF RECON,ioos:station:SCCF:11:1,2012-04-12T07:00:00Z,26.4679,-82.0631,1.74,25.36,2 
SCCF RECON,ioos:station:SCCF:11:1,2012-04-12T08:00:00Z,26.4679,-82.0631,1.74,25.18,2 
SCCF RECON,ioos:station:SCCF:11:1,2012-04-12T09:00:00Z,26.4679,-82.0631,1.74,25.0,2 
SCCF RECON,ioos:station:SCCF:11:1,2012-04-12T10:00:00Z,26.4679,-82.0631,1.74,24.9,2 
SCCF RECON,ioos:station:SCCF:11:1,2012-04-12T11:00:00Z,26.4679,-82.0631,1.74,24.97,2 
SCCF RECON,ioos:station:SCCF:11:1,2012-04-12T12:00:00Z,26.4679,-82.0631,1.74,24.97,2 
SCCF RECON,ioos:station:SCCF:11:1,2012-04-12T13:00:00Z,26.4679,-82.0631,1.74,24.85,2 
SCCF RECON,ioos:station:SCCF:11:1,2012-04-12T14:00:00Z,26.4679,-82.0631,1.74,25.04,2 
SCCF RECON,ioos:station:SCCF:11:1,2012-04-12T15:00:00Z,26.4679,-82.0631,1.74,25.04,2 
SCCF RECON,ioos:station:SCCF:11:1,2012-04-12T16:00:00Z,26.4679,-82.0631,1.74,25.32,2 
SCCF RECON,ioos:station:SCCF:11:1,2012-04-12T17:00:00Z,26.4679,-82.0631,1.74,25.6,2 
SCCF RECON,ioos:station:SCCF:11:1,2012-04-12T18:00:00Z,26.4679,-82.0631,1.74,25.94,2 
SCCF RECON,ioos:station:SCCF:11:1,2012-04-12T19:00:00Z,26.4679,-82.0631,1.74,26.2,2 
SCCF RECON,ioos:station:SCCF:11:1,2012-04-12T20:00:00Z,26.4679,-82.0631,1.74,26.33,2 
SCCF RECON,ioos:station:SCCF:11:1,2012-04-12T21:00:00Z,26.4679,-82.0631,1.74,26.22,2 
SCCF RECON,ioos:station:SCCF:11:1,2012-04-12T22:00:00Z,26.4679,-82.0631,1.74,26.31,2 
SCCF RECON,ioos:station:SCCF:11:1,2012-04-12T23:00:00Z,26.4679,-82.0631,1.74,26.46,2 
SCCF RECON,ioos:station:SCCF:11:1,2012-04-13T00:00:00Z,26.4679,-82.0631,1.74,26.1,2 
SCCF RECON,ioos:station:SCCF:11:1,2012-04-13T01:00:00Z,26.4679,-82.0631,1.74,25.99,2 
SCCF RECON,ioos:station:SCCF:11:1,2012-04-13T02:00:00Z,26.4679,-82.0631,1.74,25.96,2 
SCCF RECON,ioos:station:SCCF:11:1,2012-04-13T03:00:00Z,26.4679,-82.0631,1.74,25.76,2 
SCCF RECON,ioos:station:SCCF:11:1,2012-04-13T04:00:00Z,26.4679,-82.0631,1.74,25.5,2 
SCCF RECON,ioos:station:SCCF:11:1,2012-04-13T05:00:00Z,26.4679,-82.0631,1.74,25.28,2 
SCCF RECON,ioos:station:SCCF:11:1,2012-04-13T06:00:00Z,26.4679,-82.0631,1.74,25.16,2 
SCCF RECON,ioos:station:SCCF:11:1,2012-04-13T07:00:00Z,26.4679,-82.0631,1.74,24.89,2 
SCCF RECON,ioos:station:SCCF:11:1,2012-04-13T08:00:00Z,26.4679,-82.0631,1.74,24.78,2 
SCCF RECON,ioos:station:SCCF:11:1,2012-04-13T09:00:00Z,26.4679,-82.0631,1.74,24.66,2 
SCCF RECON,ioos:station:SCCF:11:1,2012-04-13T10:00:00Z,26.4679,-82.0631,1.74,24.55,2 
SCCF RECON,ioos:station:SCCF:11:1,2012-04-13T11:00:00Z,26.4679,-82.0631,1.74,24.54,2 
SCCF RECON,ioos:station:SCCF:11:1,2012-04-13T12:00:00Z,26.4679,-82.0631,1.74,24.73,2 
SCCF RECON,ioos:station:SCCF:11:1,2012-04-13T13:00:00Z,26.4679,-82.0631,1.74,24.79,2 
SCCF RECON,ioos:station:SCCF:11:1,2012-04-13T14:00:00Z,26.4679,-82.0631,1.74,24.86,2 
SCCF RECON,ioos:station:SCCF:11:1,2012-04-13T15:00:00Z,26.4679,-82.0631,1.74,24.84,2 
SCCF RECON,ioos:station:SCCF:11:1,2012-04-13T16:00:00Z,26.4679,-82.0631,1.74,24.93,2 
SCCF RECON,ioos:station:SCCF:11:1,2012-04-13T17:00:00Z,26.4679,-82.0631,1.74,25.38,2 
SCCF RECON,ioos:station:SCCF:11:1,2012-04-13T18:00:00Z,26.4679,-82.0631,1.74,26.01,2 
SCCF RECON,ioos:station:SCCF:11:1,2012-04-13T19:00:00Z,26.4679,-82.0631,1.74,26.96,2 
SCCF RECON,ioos:station:SCCF:11:1,2012-04-13T20:00:00Z,26.4679,-82.0631,1.74,26.48,2 
SCCF RECON,ioos:station:SCCF:11:1,2012-04-13T21:00:00Z,26.4679,-82.0631,1.74,26.31,2 
SCCF RECON,ioos:station:SCCF:11:1,2012-04-13T22:00:00Z,26.4679,-82.0631,1.74,26.22,2 
SCCF RECON,ioos:station:SCCF:11:1,2012-04-13T23:00:00Z,26.4679,-82.0631,1.74,26.5,2 
SCCF RECON,ioos:station:SCCF:11:1,2012-04-14T00:00:00Z,26.4679,-82.0631,1.74,26.1,2 
SCCF RECON,ioos:station:SCCF:11:1,2012-04-14T01:00:00Z,26.4679,-82.0631,1.74,26.36,2 
SCCF RECON,ioos:station:SCCF:11:1,2012-04-14T02:00:00Z,26.4679,-82.0631,1.74,26.22,2 
SCCF RECON,ioos:station:SCCF:11:1,2012-04-14T03:00:00Z,26.4679,-82.0631,1.74,26.02,2 
SCCF RECON,ioos:station:SCCF:11:1,2012-04-14T04:00:00Z,26.4679,-82.0631,1.74,26.06,2 
SCCF RECON,ioos:station:SCCF:11:1,2012-04-14T05:00:00Z,26.4679,-82.0631,1.74,26.03,2 
SCCF RECON,ioos:station:SCCF:11:1,2012-04-14T06:00:00Z,26.4679,-82.0631,1.74,25.89,2 
SCCF RECON,ioos:station:SCCF:11:1,2012-04-14T07:00:00Z,26.4679,-82.0631,1.74,25.68,2 
SCCF RECON,ioos:station:SCCF:11:1,2012-04-14T08:00:00Z,26.4679,-82.0631,1.74,25.53,2 
SCCF RECON,ioos:station:SCCF:11:1,2012-04-14T09:00:00Z,26.4679,-82.0631,1.74,25.11,2 
SCCF RECON,ioos:station:SCCF:11:1,2012-04-14T10:00:00Z,26.4679,-82.0631,1.74,24.99,2 
SCCF RECON,ioos:station:SCCF:11:1,2012-04-14T11:00:00Z,26.4679,-82.0631,1.74,24.99,2 
SCCF RECON,ioos:station:SCCF:11:1,2012-04-14T12:00:00Z,26.4679,-82.0631,1.74,24.79,2 
SCCF RECON,ioos:station:SCCF:11:1,2012-04-14T13:00:00Z,26.4679,-82.0631,1.74,24.84,2 
SCCF RECON,ioos:station:SCCF:11:1,2012-04-14T14:00:00Z,26.4679,-82.0631,1.74,25.04,2 
SCCF RECON,ioos:station:SCCF:11:1,2012-04-14T15:00:00Z,26.4679,-82.0631,1.74,25.15,2 
SCCF RECON,ioos:station:SCCF:11:1,2012-04-14T16:00:00Z,26.4679,-82.0631,1.74,25.35,2 
SCCF RECON,ioos:station:SCCF:11:1,2012-04-14T17:00:00Z,26.4679,-82.0631,1.74,25.42,2 
SCCF RECON,ioos:station:SCCF:11:1,2012-04-14T18:00:00Z,26.4679,-82.0631,1.74,25.62,2 
SCCF RECON,ioos:station:SCCF:11:1,2012-04-14T19:00:00Z,26.4679,-82.0631,1.74,25.88,2 
SCCF RECON,ioos:station:SCCF:11:1,2012-04-14T20:00:00Z,26.4679,-82.0631,1.74,25.89,2 
SCCF RECON,ioos:station:SCCF:11:1,2012-04-14T21:00:00Z,26.4679,-82.0631,1.74,25.53,2 
SCCF RECON,ioos:station:SCCF:11:1,2012-04-14T22:00:00Z,26.4679,-82.0631,1.74,25.4,2 
SCCF RECON,ioos:station:SCCF:11:1,2012-04-14T23:00:00Z,26.4679,-82.0631,1.74,25.3,2 
SCCF RECON,ioos:station:SCCF:11:1,2012-04-15T00:00:00Z,26.4679,-82.0631,1.74,25.4,2 
SCCF RECON,ioos:station:SCCF:11:1,2012-04-15T01:00:00Z,26.4679,-82.0631,1.74,25.18,2 
SCCF RECON,ioos:station:SCCF:11:1,2012-04-15T02:00:00Z,26.4679,-82.0631,1.74,24.91,2 
SCCF RECON,ioos:station:SCCF:11:1,2012-04-15T03:00:00Z,26.4679,-82.0631,1.74,24.99,2 
SCCF RECON,ioos:station:SCCF:11:1,2012-04-15T04:00:00Z,26.4679,-82.0631,1.74,24.97,2 
SCCF RECON,ioos:station:SCCF:11:1,2012-04-15T05:00:00Z,26.4679,-82.0631,1.74,24.82,2 
SCCF RECON,ioos:station:SCCF:11:1,2012-04-15T06:00:00Z,26.4679,-82.0631,1.74,24.85,2 
SCCF RECON,ioos:station:SCCF:11:1,2012-04-15T07:00:00Z,26.4679,-82.0631,1.74,24.77,2 
SCCF RECON,ioos:station:SCCF:11:1,2012-04-15T08:00:00Z,26.4679,-82.0631,1.74,24.62,2 
SCCF RECON,ioos:station:SCCF:11:1,2012-04-15T09:00:00Z,26.4679,-82.0631,1.74,23.9,2 
SCCF RECON,ioos:station:SCCF:11:1,2012-04-15T10:00:00Z,26.4679,-82.0631,1.74,23.83,2 
SCCF RECON,ioos:station:SCCF:11:1,2012-04-15T11:00:00Z,26.4679,-82.0631,1.74,23.8,2 
SCCF RECON,ioos:station:SCCF:11:1,2012-04-15T12:00:00Z,26.4679,-82.0631,1.74,23.71,2 
SCCF RECON,ioos:station:SCCF:11:1,2012-04-15T13:00:00Z,26.4679,-82.0631,1.74,23.94,2 
SCCF RECON,ioos:station:SCCF:11:1,2012-04-15T14:00:00Z,26.4679,-82.0631,1.74,24.15,2 
SCCF RECON,ioos:station:SCCF:11:1,2012-04-15T15:00:00Z,26.4679,-82.0631,1.74,24.43,2 
SCCF RECON,ioos:station:SCCF:11:1,2012-04-15T16:00:00Z,26.4679,-82.0631,1.74,24.6,2 
SCCF RECON,ioos:station:SCCF:11:1,2012-04-15T17:00:00Z,26.4679,-82.0631,1.74,24.84,2 
SCCF RECON,ioos:station:SCCF:11:1,2012-04-15T18:00:00Z,26.4679,-82.0631,1.74,24.96,2 
SCCF RECON,ioos:station:SCCF:11:1,2012-04-15T19:00:00Z,26.4679,-82.0631,1.74,25.45,2 
SCCF RECON,ioos:station:SCCF:11:1,2012-04-15T20:00:00Z,26.4679,-82.0631,1.74,25.81,2 
SCCF RECON,ioos:station:SCCF:11:1,2012-04-15T21:00:00Z,26.4679,-82.0631,1.74,25.88,2 
SCCF RECON,ioos:station:SCCF:11:1,2012-04-15T22:00:00Z,26.4679,-82.0631,1.74,25.64,2 
SCCF RECON,ioos:station:SCCF:11:1,2012-04-15T23:00:00Z,26.4679,-82.0631,1.74,25.25,2 
SCCF RECON,ioos:station:SCCF:11:1,2012-04-16T00:00:00Z,26.4679,-82.0631,1.74,25.4,2 
SCCF RECON,ioos:station:SCCF:11:1,2012-04-16T01:00:00Z,26.4679,-82.0631,1.74,25.09,2 
SCCF RECON,ioos:station:SCCF:11:1,2012-04-16T02:00:00Z,26.4679,-82.0631,1.74,24.79,2 
SCCF RECON,ioos:station:SCCF:11:1,2012-04-16T03:00:00Z,26.4679,-82.0631,1.74,24.67,2 
SCCF RECON,ioos:station:SCCF:11:1,2012-04-16T04:00:00Z,26.4679,-82.0631,1.74,24.84,2 
SCCF RECON,ioos:station:SCCF:11:1,2012-04-16T05:00:00Z,26.4679,-82.0631,1.74,25.1,2 
SCCF RECON,ioos:station:SCCF:11:1,2012-04-16T06:00:00Z,26.4679,-82.0631,1.74,25.02,2 
SCCF RECON,ioos:station:SCCF:11:1,2012-04-16T07:00:00Z,26.4679,-82.0631,1.74,24.98,2 
SCCF RECON,ioos:station:SCCF:11:1,2012-04-16T08:00:00Z,26.4679,-82.0631,1.74,24.86,2 
SCCF RECON,ioos:station:SCCF:11:1,2012-04-16T09:00:00Z,26.4679,-82.0631,1.74,24.73,2 
SCCF RECON,ioos:station:SCCF:11:1,2012-04-16T10:00:00Z,26.4679,-82.0631,1.74,24.04,2 
SCCF RECON,ioos:station:SCCF:11:1,2012-04-16T11:00:00Z,26.4679,-82.0631,1.74,24.06,2 
SCCF RECON,ioos:station:SCCF:11:1,2012-04-16T12:00:00Z,26.4679,-82.0631,1.74,23.94,2 
SCCF RECON,ioos:station:SCCF:11:1,2012-04-16T13:00:00Z,26.4679,-82.0631,1.74,24.02,2 
SCCF RECON,ioos:station:SCCF:11:1,2012-04-16T14:00:00Z,26.4679,-82.0631,1.74,24.04,2 
SCCF RECON,ioos:station:SCCF:11:1,2012-04-16T15:00:00Z,26.4679,-82.0631,1.74,24.19,2 
SCCF RECON,ioos:station:SCCF:11:1,2012-04-16T16:00:00Z,26.4679,-82.0631,1.74,24.54,2 
SCCF RECON,ioos:station:SCCF:11:1,2012-04-16T17:00:00Z,26.4679,-82.0631,1.74,24.55,2 
SCCF RECON,ioos:station:SCCF:11:1,2012-04-16T18:00:00Z,26.4679,-82.0631,1.74,24.93,2 
SCCF RECON,ioos:station:SCCF:11:1,2012-04-16T19:00:00Z,26.4679,-82.0631,1.74,25.44,2 
SCCF RECON,ioos:station:SCCF:11:1,2012-04-16T20:00:00Z,26.4679,-82.0631,1.74,25.59,2 
SCCF RECON,ioos:station:SCCF:11:1,2012-04-16T21:00:00Z,26.4679,-82.0631,1.74,26.35,2 
SCCF RECON,ioos:station:SCCF:11:1,2012-04-16T22:00:00Z,26.4679,-82.0631,1.74,26.12,2 
SCCF RECON,ioos:station:SCCF:11:1,2012-04-16T23:00:00Z,26.4679,-82.0631,1.74,25.58,2 
SCCF RECON,ioos:station:SCCF:11:1,2012-04-17T00:00:00Z,26.4679,-82.0631,1.74,25.04,2 
SCCF RECON,ioos:station:SCCF:11:1,2012-04-17T01:00:00Z,26.4679,-82.0631,1.74,24.88,2 
SCCF RECON,ioos:station:SCCF:11:1,2012-04-17T02:00:00Z,26.4679,-82.0631,1.74,24.76,2 
SCCF RECON,ioos:station:SCCF:11:1,2012-04-17T03:00:00Z,26.4679,-82.0631,1.74,24.54,2 
SCCF RECON,ioos:station:SCCF:11:1,2012-04-17T04:00:00Z,26.4679,-82.0631,1.74,24.45,2 